Theta_e
332 333 335 338 340 341 342 343 345 346 346 347 347 347 347 348 349 348 348 348 348 348 348 348 348 348 349 349 349 349 349 349 349 348 348 349 349 349 350 349 349 349 348 348 349 348 347 347 346 346 345 344 343 342 343 344 344 345 345 346 347 347 347 347 348 351 350 350 351 353 354 354 356 357 355 354 354 355 353 352 353 354 354 351 354
330 332 335 337 338 338 340 341 342 343 344 345 345 346 346 347 347 347 348 348 347 348 348 348 348 348 349 349 349 349 348 349 349 349 349 348 348 349 349 349 349 349 349 349 348 348 348 347 347 346 344 344 343 342 343 344 345 346 346 347 347 348 347 347 348 350 350 349 350 351 352 354 355 355 357 357 355 354 354 352 352 355 350 353 355
331 332 334 335 336 336 338 339 340 341 342 342 343 343 344 344 345 346 346 347 347 347 347 348 348 347 347 347 347 347 348 348 349 349 349 349 348 348 348 348 348 348 349 349 348 347 347 347 347 347 347 345 344 343 345 345 346 347 347 347 347 347 348 349 348 350 350 349 349 349 348 349 354 356 356 357 356 354 354 352 352 352 355 353 354
329 330 333 336 334 334 335 336 337 337 339 339 340 341 342 343 343 344 344 344 345 345 345 345 346 346 346 346 346 347 347 347 348 348 348 348 348 347 347 347 347 347 347 348 347 347 347 347 346 346 346 347 348 346 346 348 348 349 348 348 347 347 348 349 350 350 350 349 349 347 342 339 347 356 357 357 356 354 352 351 351 354 355 356 355
328 329 332 334 334 332 334 334 335 336 336 338 338 340 340 341 341 341 342 343 343 344 344 344 344 344 345 346 346 345 346 346 346 346 346 346 346 346 346 346 346 347 347 347 347 347 347 346 346 346 346 346 347 349 348 348 347 346 347 346 347 349 349 350 350 350 349 348 347 347 336 331 345 350 356 356 354 353 351 351 352 355 356 356 357
327 329 331 332 332 331 332 333 334 334 335 336 336 337 338 338 338 340 340 341 342 342 342 343 343 343 344 344 345 345 344 343 343 343 344 344 344 344 344 344 345 346 346 346 347 348 347 347 347 346 346 345 347 347 347 346 345 344 345 346 347 347 348 349 349 348 348 345 345 349 343 338 342 350 353 353 353 353 351 352 353 355 355 355 355
327 328 329 330 330 330 331 332 333 333 334 334 334 335 335 335 336 337 338 339 339 340 340 341 341 341 342 342 341 341 341 340 340 340 340 341 342 343 343 343 344 344 345 345 346 346 346 346 346 346 346 345 346 346 346 347 346 345 345 346 346 347 347 349 348 347 346 345 346 341 337 338 342 350 353 352 352 352 353 352 352 352 353 353 354
326 327 327 328 329 329 329 330 331 331 332 332 332 332 333 333 334 335 335 335 335 336 337 338 338 338 338 338 338 337 337 336 337 337 337 338 339 341 341 340 341 342 342 344 345 346 346 346 346 346 346 346 346 346 346 347 347 346 345 346 347 347 347 349 348 346 344 347 347 347 338 339 338 344 349 348 348 352 352 352 353 353 353 353 353
322 323 324 326 326 326 327 328 329 329 330 330 330 330 330 331 332 333 333 332 332 332 333 334 334 335 335 335 335 334 333 333 333 334 334 335 336 336 336 336 336 337 338 340 342 343 344 345 345 346 346 346 345 344 345 346 346 346 346 346 346 346 348 347 346 342 345 345 345 344 345 342 341 339 344 344 345 347 349 350 349 349 352 353 350
320 322 324 326 326 326 326 326 327 328 328 328 327 327 328 328 329 330 330 329 328 329 329 330 331 331 331 331 331 330 330 330 330 330 330 331 332 332 332 333 333 333 335 336 339 340 341 341 341 341 342 342 341 341 343 344 345 346 346 345 345 346 347 347 344 342 344 343 345 344 346 347 342 344 344 340 340 347 349 344 346 348 350 349 349
318 321 322 324 324 324 325 325 325 325 326 325 326 326 326 326 327 327 327 326 326 326 326 326 327 327 327 327 327 327 326 326 326 327 328 328 329 329 329 330 330 330 331 332 334 337 338 338 337 337 336 336 334 334 337 339 342 343 344 344 345 345 345 345 341 342 341 341 341 343 344 345 344 344 351 347 345 349 348 343 344 348 350 351 352
315 319 320 320 321 322 322 323 323 324 324 324 324 324 324 324 324 325 325 324 324 323 323 324 324 324 324 324 324 324 324 323 324 325 326 326 326 326 326 327 327 327 328 328 330 332 334 334 334 334 333 332 331 331 331 333 335 338 340 341 342 343 343 342 343 340 340 340 340 342 341 341 342 344 350 350 351 351 350 348 350 351 352 352 353
312 315 318 319 319 318 320 321 321 322 322 323 323 323 323 323 323 323 323 322 321 321 321 321 321 322 322 322 322 321 321 321 321 321 323 323 323 323 323 323 324 324 325 325 326 328 330 331 330 330 329 328 328 328 328 328 330 332 333 335 337 337 335 333 341 340 338 339 340 341 342 343 343 345 349 349 350 351 350 351 351 352 352 352 353
310 311 315 316 315 315 317 318 319 320 321 321 321 321 321 321 321 321 321 320 319 319 319 319 319 319 319 319 320 319 319 319 319 319 320 320 320 320 320 320 321 321 321 321 322 323 325 326 326 326 326 325 325 324 324 324 325 327 328 329 330 329 329 331 337 340 339 338 339 341 341 341 342 344 348 348 349 349 348 349 350 351 352 352 352
308 310 311 313 313 313 312 315 316 317 317 318 319 319 319 319 318 318 319 318 318 317 317 317 316 317 317 318 317 317 317 317 317 317 317 318 319 319 318 319 319 319 319 319 318 319 320 321 321 322 322 322 322 322 321 321 321 322 324 324 324 324 324 323 332 338 338 338 338 339 341 341 341 346 347 347 348 348 348 349 349 350 352 353 354
310 309 309 309 309 310 311 311 312 313 314 315 315 316 316 316 316 316 316 317 317 316 316 314 314 314 314 315 315 314 315 315 315 315 316 316 317 318 318 318 319 319 319 320 319 319 319 320 320 319 319 320 319 319 319 319 319 320 321 321 321 322 321 320 323 332 335 336 337 338 339 340 341 346 347 346 347 348 348 348 349 349 350 351 353
307 307 308 307 309 307 307 309 309 310 310 312 312 313 313 314 314 314 313 313 314 314 313 312 312 311 311 311 311 311 311 311 312 313 313 313 314 314 316 316 317 318 318 318 319 320 319 319 318 318 318 318 319 318 318 317 317 318 319 319 319 318 319 317 319 325 331 335 337 337 337 338 338 346 345 345 345 346 346 348 348 348 348 348 350
307 306 305 306 306 306 305 305 308 308 307 308 309 310 311 311 311 311 311 310 310 311 311 310 309 309 309 308 307 307 307 308 308 309 310 309 310 311 312 314 314 315 316 315 317 318 318 318 317 317 318 318 317 317 316 316 316 317 318 318 318 318 317 316 317 324 329 333 334 337 336 335 337 343 344 344 345 345 344 344 345 347 347 348 349
305 303 304 304 304 305 305 306 306 307 308 307 305 306 307 308 309 308 309 308 308 307 307 307 307 307 306 305 305 305 305 305 305 306 307 306 305 306 309 311 312 312 313 313 314 315 315 316 316 316 316 316 316 316 316 315 315 315 315 315 315 315 313 314 321 326 331 336 337 337 337 336 340 343 344 344 345 344 344 344 344 345 346 347 348
304 304 303 304 304 304 305 305 305 305 306 307 305 303 303 304 305 305 305 305 306 306 305 304 303 304 303 303 304 307 308 306 306 304 304 305 303 303 306 308 310 310 310 312 313 313 313 314 314 314 314 314 315 314 314 315 314 314 314 313 313 312 313 312 320 325 328 328 331 333 334 337 343 343 344 344 343 343 343 344 344 345 346 346 346
303 303 304 303 305 304 304 304 304 304 305 306 305 304 304 303 303 302 302 302 303 302 303 303 307 307 306 305 306 305 306 305 304 303 307 304 304 303 305 308 308 308 308 310 310 311 312 312 313 313 313 313 312 312 314 315 312 313 314 314 312 311 313 314 319 320 321 323 326 328 332 337 340 341 342 344 343 343 342 343 344 344 345 346 346
301 302 302 303 303 303 304 304 304 304 304 306 306 305 303 306 305 305 304 304 304 306 305 304 307 306 306 304 304 303 304 303 302 304 303 303 304 304 304 306 307 307 307 309 309 310 310 311 311 311 311 312 311 311 310 313 314 316 314 311 312 314 312 312 313 312 314 315 320 324 330 336 337 339 341 342 342 342 342 341 342 343 344 345 346
300 301 302 301 303 303 303 302 303 304 304 305 305 305 304 304 304 303 303 305 304 303 305 304 305 305 304 304 302 303 304 303 301 303 303 306 304 304 304 304 304 305 306 307 307 308 309 310 310 310 310 311 310 310 308 310 309 308 308 312 308 308 310 310 310 311 312 313 316 322 327 333 334 336 338 340 340 341 341 342 342 342 343 343 345
300 301 301 302 302 302 303 303 303 303 303 303 304 303 303 303 304 304 304 303 304 303 304 304 304 304 304 303 302 303 303 303 306 304 306 303 304 306 307 306 303 305 304 304 305 306 307 307 307 307 308 309 307 306 306 306 307 307 307 306 306 307 308 309 308 309 309 314 315 319 324 328 329 331 334 338 339 339 339 340 341 341 341 342 343
302 302 302 300 301 302 302 303 303 303 304 303 304 303 303 303 303 303 303 302 303 303 303 303 303 304 303 303 303 303 303 302 302 302 302 301 302 301 301 301 301 302 304 302 302 303 304 304 304 305 305 305 305 306 306 305 306 306 305 305 305 307 307 308 308 307 308 309 311 316 319 322 324 327 330 333 335 336 338 339 340 340 341 341 342
302 301 301 300 301 302 302 302 302 303 303 302 303 303 303 302 303 302 302 303 303 302 303 303 303 303 302 302 302 302 302 302 301 301 301 300 300 299 300 300 300 300 300 300 300 301 301 302 302 303 303 304 305 305 306 305 305 305 305 306 306 306 307 306 306 307 308 308 310 313 317 320 319 320 323 325 327 328 329 330 334 340 340 340 341
301 301 301 300 300 301 302 302 301 302 303 304 303 300 302 303 303 302 303 302 302 302 301 301 302 302 302 301 302 301 301 300 300 300 300 300 299 299 298 299 299 299 299 299 299 300 300 300 300 301 302 303 304 305 305 306 306 305 305 305 306 305 305 305 306 306 306 307 309 312 314 316 317 317 318 320 321 323 325 326 329 332 336 340 339
301 301 301 300 300 300 301 301 301 301 302 302 301 301 302 302 302 299 302 301 301 301 301 301 302 300 301 300 300 300 299 299 299 298 299 299 298 299 299 298 298 298 298 298 298 298 298 299 300 300 300 301 301 302 303 303 303 304 304 304 305 304 305 304 304 305 306 307 308 310 312 314 317 316 316 318 320 322 324 325 326 327 330 333 339
301 301 301 299 300 300 300 300 300 300 300 300 300 300 301 302 300 300 301 300 301 301 300 301 301 299 300 300 300 299 298 299 298 298 298 298 298 298 297 297 297 297 297 297 297 297 297 298 298 298 299 299 300 300 301 302 303 303 303 303 304 304 304 304 304 305 305 305 306 307 311 313 316 314 314 316 319 321 323 324 326 327 327 330 333
301 301 300 300 299 299 299 299 300 300 300 299 300 300 300 300 300 301 299 299 300 300 300 300 299 299 299 299 299 299 298 297 297 297 297 297 297 297 297 296 296 296 296 296 296 296 296 297 298 298 298 298 298 299 299 300 301 302 302 302 303 303 303 302 303 303 304 304 305 305 308 311 315 314 314 315 317 320 321 323 324 324 325 327 328
301 300 300 300 300 299 299 298 300 301 301 299 301 300 300 300 300 300 300 300 300 300 300 299 299 299 298 299 299 298 298 298 296 296 296 296 296 296 295 296 295 295 295 295 296 296 296 296 297 297 297 298 298 298 298 299 299 300 301 301 301 302 302 302 303 303 303 304 304 305 307 308 311 313 314 314 315 316 319 321 323 324 324 325 326
300 300 300 300 299 298 298 298 299 299 300 299 301 300 299 300 300 299 299 300 300 300 299 299 298 298 299 299 298 298 297 297 297 297 295 296 295 295 295 295 294 295 294 294 295 296 296 297 297 297 298 298 298 298 299 298 298 299 300 300 300 300 301 301 301 302 303 304 304 305 305 307 308 311 313 315 315 315 317 318 320 322 324 325 326
301 302 300 300 299 298 298 298 299 300 299 298 299 299 299 299 299 299 299 300 299 299 298 298 298 298 298 298 297 297 297 296 296 296 296 295 295 295 295 294 294 294 294 295 295 295 295 296 296 297 297 297 296 297 299 297 296 297 298 299 299 299 300 301 301 301 302 303 303 304 305 306 306 308 309 312 314 314 314 315 316 318 321 324 325
301 301 300 299 299 299 299 299 298 298 299 299 298 298 299 298 298 299 298 298 298 298 298 298 297 297 298 297 297 296 296 296 295 296 295 294 294 294 294 294 294 294 293 294 293 294 294 294 295 295 296 295 295 296 295 295 296 296 296 297 297 298 299 299 299 299 300 301 302 303 304 304 305 305 307 308 310 313 314 314 314 316 317 319 322
301 301 299 299 298 299 299 297 298 298 298 298 298 298 298 298 298 298 297 299 298 298 297 297 297 297 297 296 296 295 296 295 295 294 294 294 293 293 293 293 293 293 292 293 293 293 294 293 293 293 294 294 295 295 295 294 295 295 296 296 296 296 297 297 299 300 300 301 301 302 303 303 304 305 306 306 305 307 312 314 315 314 315 317 319
300 300 300 299 297 298 298 298 297 298 298 298 298 298 298 298 298 298 298 299 297 298 297 297 297 296 295 296 296 295 295 295 294 294 293 294 293 293 292 293 293 292 292 292 293 292 293 293 293 294 292 293 293 293 294 294 295 295 296 296 296 296 296 297 297 298 300 300 300 301 302 302 303 304 305 304 304 304 307 310 312 312 312 313 315
301 300 299 298 297 298 297 297 297 298 297 297 298 298 297 297 297 297 298 298 297 297 296 296 296 295 295 295 295 294 295 294 294 294 293 293 293 292 292 293 292 291 291 291 292 292 292 292 292 293 293 292 292 293 293 293 293 294 294 295 295 296 296 297 297 298 300 299 300 300 301 302 303 303 304 304 305 305 306 308 311 312 313 312 313
300 300 299 298 297 297 297 297 297 297 297 297 297 297 297 297 297 297 297 296 297 296 296 295 295 295 294 294 295 294 294 294 293 293 293 293 292 292 292 292 292 291 291 291 291 292 292 292 291 292 292 292 291 291 291 292 293 293 293 294 295 296 296 297 298 299 298 298 299 300 301 302 302 303 303 304 304 303 304 306 308 309 308 311 314
300 299 298 298 297 296 296 297 297 296 297 297 297 297 296 296 296 296 295 296 295 295 294 294 295 294 294 294 293 293 293 293 293 293 292 292 292 292 292 292 291 290 290 290 290 291 291 292 292 291 292 293 292 291 291 292 293 293 293 293 294 295 296 297 298 298 298 299 300 301 302 301 302 303 303 303 303 304 304 305 304 305 306 308 315
299 298 298 297 297 296 296 296 296 296 296 296 296 295 295 294 294 294 294 294 294 293 294 294 294 294 294 293 294 293 293 292 292 292 291 291 291 291 291 291 291 290 289 289 290 290 290 290 290 290 290 291 292 292 292 292 292 291 291 293 295 296 295 295 295 296 298 299 300 301 300 302 302 303 303 304 304 304 305 305 304 304 305 307 310
298 297 297 297 296 296 296 295 296 296 295 295 294 294 293 293 294 293 292 293 293 293 293 293 293 293 293 293 293 292 293 292 291 291 291 291 290 290 290 290 291 290 289 289 290 290 291 291 290 290 289 289 290 292 292 292 289 289 292 291 291 293 294 295 295 296 297 298 299 300 301 301 302 302 303 303 304 304 304 304 304 305 305 306 306
296 296 296 296 296 296 296 295 295 294 294 294 294 294 294 294 294 293 293 293 292 291 292 292 293 293 293 292 292 292 292 291 291 291 290 290 290 290 290 290 290 290 290 290 290 290 289 289 290 289 290 289 289 291 291 291 289 287 286 286 289 292 294 293 293 294 297 299 301 301 301 301 301 303 303 303 303 304 303 303 304 305 305 306 306
296 295 296 296 296 296 296 295 294 294 294 294 294 294 295 295 295 294 294 293 294 294 294 293 293 292 293 292 292 292 291 291 291 291 290 290 290 289 289 289 290 289 289 288 289 289 289 290 290 289 287 289 289 290 290 292 288 288 288 286 285 285 289 291 295 298 295 294 294 293 294 295 297 299 300 301 302 302 303 304 305 306 307 307 308
295 295 295 295 295 295 295 295 294 294 294 294 295 295 296 295 296 294 294 293 291 291 292 292 292 291 291 292 291 291 291 290 290 290 290 289 289 289 289 289 289 289 289 288 288 288 289 289 289 289 289 286 287 288 291 291 290 288 283 284 284 285 283 287 288 290 293 292 292 294 297 298 297 297 299 298 299 301 301 302 302 303 302 302 302
295 294 295 294 294 295 295 295 294 294 294 294 295 295 294 293 292 292 292 290 290 290 290 289 290 291 291 291 291 291 291 290 290 289 289 289 289 289 288 289 289 289 289 288 287 288 288 289 289 288 288 286 286 287 288 290 290 291 287 284 283 282 283 284 286 286 290 291 294 293 293 294 295 296 297 298 300 300 300 299 301 302 303 303 303
294 294 295 295 295 295 295 295 295 294 294 295 294 293 292 291 290 288 287 287 288 288 288 288 289 289 289 291 291 291 290 289 289 289 289 288 288 289 289 288 288 288 289 288 288 288 288 288 288 288 288 288 287 286 286 289 290 290 290 289 287 282 282 285 284 281 288 290 290 292 293 294 295 295 296 296 296 296 297 297 298 299 301 302 302
294 295 295 295 295 295 295 295 294 294 295 294 294 293 291 291 290 290 290 289 288 290 291 291 291 291 291 290 290 290 290 289 289 289 288 288 288 288 288 288 288 288 288 287 287 287 287 288 289 288 288 288 287 285 285 286 288 289 290 290 289 289 288 284 281 284 281 286 289 290 291 293 294 294 294 295 296 296 296 297 298 298 299 300 300
295 295 295 294 294 294 294 295 294 294 294 293 293 292 291 291 291 291 291 291 290 290 291 290 290 290 289 289 289 289 289 289 288 288 288 288 287 287 287 287 287 287 287 287 287 287 287 288 288 288 287 287 286 285 284 286 284 285 288 287 288 288 289 288 288 284 283 281 283 289 291 291 292 292 293 293 293 294 295 296 297 297 298 299 300
294 294 294 294 294 294 295 295 294 294 293 293 293 292 292 291 291 291 290 291 291 291 290 290 289 289 288 288 288 288 288 288 288 288 288 287 287 286 286 286 286 286 286 286 286 287 286 286 286 286 286 286 287 286 285 285 285 285 285 285 286 286 287 287 287 287 284 282 281 283 285 289 290 290 291 292 293 294 294 294 295 296 296 297 298
294 295 295 295 294 294 294 293 293 293 293 292 292 291 291 291 290 290 290 289 289 289 289 288 288 288 287 287 287 287 287 287 287 288 287 287 286 286 286 285 285 285 285 285 286 286 286 286 286 286 286 285 286 286 285 285 285 285 285 284 283 284 284 284 285 285 285 285 282 282 284 284 283 286 289 289 291 292 293 294 294 295 295 295 296
295 294 294 294 294 294 293 292 292 292 292 292 291 291 291 291 290 290 290 289 289 289 287 287 287 287 286 287 287 287 287 287 287 286 287 286 286 286 285 285 285 285 284 284 284 285 285 285 286 286 285 285 285 285 285 285 285 284 284 284 283 283 282 282 282 283 283 281 281 281 282 283 283 282 286 289 290 291 292 293 293 293 294 295 296
Wind_Speed
5 6 3 9 10 10 10 10 11 12 12 12 13 13 12 12 11 9 8 8 6 7 7 7 6 7 8 9 9 9 8 8 8 8 8 8 7 7 7 6 5 5 5 7 9 8 7 7 7 7 7 6 5 6 8 9 9 9 9 10 11 11 11 11 10 9 8 9 10 11 12 12 11 11 11 9 9 7 4 5 4 7 6 6 9
6 5 4 7 9 10 9 10 11 11 12 12 12 13 13 12 12 11 11 10 10 10 10 10 10 11 11 11 11 11 11 11 11 11 11 11 11 10 9 7 7 6 6 6 6 7 8 9 10 10 7 7 5 5 5 7 8 8 8 8 9 10 10 11 10 10 10 9 8 9 10 11 11 11 10 11 10 8 5 6 7 6 6 8 5
5 4 4 8 11 10 10 10 11 11 11 12 12 12 12 11 11 12 12 12 12 12 12 12 11 11 12 12 12 12 12 12 12 12 13 13 13 13 11 9 8 8 7 7 6 6 7 7 7 8 10 5 3 3 5 6 6 8 8 8 8 9 10 10 10 10 10 10 10 9 9 10 10 10 11 11 10 9 6 4 6 6 5 10 8
4 3 3 11 13 9 9 10 10 10 11 10 10 11 11 12 12 12 11 11 12 12 12 12 12 12 13 13 13 13 13 13 13 13 13 14 14 14 13 13 11 10 9 8 7 7 7 7 7 7 7 8 5 4 4 4 4 6 8 8 10 9 8 9 9 10 10 10 11 10 7 7 7 8 9 11 11 9 4 3 5 6 8 10 10
4 3 3 2 8 9 9 11 10 11 11 10 11 11 11 11 12 11 11 11 11 11 11 11 12 11 12 13 13 13 14 15 16 16 15 15 14 14 13 12 12 12 10 9 10 9 9 8 8 8 7 7 8 6 4 3 4 4 5 8 9 9 9 8 8 10 10 11 11 11 7 7 6 1 4 6 7 7 3 3 4 6 8 8 10
4 4 3 4 5 8 10 10 10 11 11 11 11 11 12 12 12 12 11 11 12 11 11 12 13 12 12 13 15 15 15 16 15 16 15 15 15 14 13 12 12 12 11 10 10 10 10 10 9 9 8 7 8 9 10 8 6 6 6 6 7 9 9 9 8 10 11 11 13 8 8 6 5 2 2 3 4 5 3 4 4 6 7 8 10
5 3 3 5 5 8 9 10 11 11 11 11 11 12 12 12 12 13 12 13 13 13 13 13 12 13 14 14 15 15 15 15 15 15 15 15 15 15 15 14 13 13 12 12 12 11 11 10 10 10 9 9 11 11 11 10 10 9 8 7 7 7 7 7 9 9 10 9 7 7 4 6 5 4 4 2 2 5 6 8 9 8 8 9 10
4 2 4 5 6 8 9 10 10 11 11 11 12 12 12 12 12 13 13 13 13 14 14 13 14 14 14 15 15 15 15 15 16 16 16 15 15 16 16 15 15 14 13 13 13 13 13 13 12 11 11 12 13 13 11 12 11 10 9 8 8 7 7 7 8 8 10 8 7 8 6 4 7 4 5 4 2 3 5 7 9 10 10 10 8
4 3 4 6 7 8 9 9 10 11 11 11 12 12 12 12 13 13 13 13 14 14 14 14 14 14 15 14 15 15 15 15 15 15 15 15 15 15 15 15 14 14 14 14 14 14 15 15 15 15 14 15 15 13 13 12 12 11 10 9 8 8 7 6 6 8 7 7 8 7 10 9 4 6 6 5 3 3 5 6 8 8 9 6 6
5 5 5 6 7 7 9 9 10 10 11 12 12 12 12 12 12 13 13 13 13 14 13 14 14 14 14 14 14 14 14 15 14 14 14 14 14 14 14 14 14 14 14 14 14 14 15 15 15 15 16 16 16 16 16 15 14 14 12 11 10 9 7 6 7 8 7 7 8 8 8 6 8 6 7 9 8 3 4 4 5 6 6 8 8
5 5 6 7 8 9 9 10 10 10 11 11 12 12 12 12 12 12 12 13 13 13 13 13 13 13 13 13 13 14 14 14 14 14 14 14 14 14 14 14 14 14 14 14 14 14 13 14 14 14 14 14 14 15 15 15 16 16 15 14 12 11 9 6 7 6 7 8 8 8 9 9 7 8 3 5 2 4 4 7 7 7 7 9 9
6 5 6 7 9 10 10 10 10 10 10 11 12 12 12 12 12 12 12 12 13 13 13 13 13 13 13 13 13 13 13 13 13 13 14 13 14 14 14 14 14 14 14 14 14 14 14 14 14 14 14 14 14 15 14 14 14 15 15 15 15 14 13 10 7 6 8 8 9 8 8 8 9 10 9 7 4 5 6 7 8 9 9 10 11
6 5 6 6 7 10 10 10 10 10 10 11 11 12 12 12 12 12 12 12 12 13 13 13 13 13 13 13 13 13 13 13 13 13 13 13 13 13 13 13 13 13 13 14 13 13 13 14 14 14 14 13 14 14 14 14 14 13 13 13 14 14 14 14 7 8 8 8 8 8 9 8 7 8 7 10 9 8 9 10 11 11 11 11 12
6 5 5 6 6 9 10 9 10 10 11 11 11 11 12 12 11 12 12 12 12 12 12 13 13 13 13 13 14 13 13 13 13 13 12 12 12 12 12 12 12 12 12 12 12 12 12 12 12 12 12 12 12 12 12 13 13 13 12 12 12 13 14 10 9 8 9 9 7 8 9 8 8 5 3 6 9 11 11 10 11 12 12 12 13
6 6 6 7 6 6 9 9 10 10 10 11 11 11 12 11 11 12 12 11 12 11 12 12 12 13 13 13 13 13 13 13 13 13 13 13 13 13 13 12 12 12 11 11 11 11 11 11 11 11 10 10 11 11 11 11 11 11 11 11 11 11 12 7 7 8 9 8 8 9 8 8 9 7 5 9 11 12 12 12 12 12 12 12 11
6 6 6 6 6 6 5 7 9 10 10 10 10 10 11 11 11 11 11 11 11 11 11 11 12 12 12 13 13 13 13 13 14 14 14 14 14 14 14 14 13 13 13 12 12 11 11 11 11 11 11 11 12 12 11 11 11 10 10 10 9 9 9 7 6 8 9 9 8 8 8 8 9 8 7 9 10 11 12 12 13 12 13 13 13
5 5 5 6 5 5 6 6 7 10 10 10 10 10 10 11 11 11 11 11 10 10 10 10 11 11 12 12 12 12 12 13 13 14 14 15 14 15 15 15 15 14 14 14 13 12 11 11 11 10 10 11 12 12 12 12 11 10 10 10 10 9 9 8 6 7 8 9 8 8 8 8 9 5 6 8 10 12 13 12 13 13 13 14 14
5 5 5 5 5 5 6 6 6 6 7 8 9 10 10 11 11 11 11 10 10 10 9 9 10 10 10 9 9 10 11 10 11 11 12 13 14 13 15 15 15 15 15 16 15 14 13 13 12 11 11 11 11 12 12 11 11 10 11 11 10 11 9 11 7 8 10 9 10 8 8 10 12 9 8 10 12 12 13 14 14 13 13 14 14
5 5 5 5 5 5 5 4 4 4 4 4 5 7 10 10 11 10 10 9 9 9 9 9 8 8 7 7 6 7 8 9 7 9 8 10 12 10 12 12 12 13 14 14 14 14 14 14 14 13 13 13 13 12 12 11 10 10 11 11 12 11 14 10 8 9 10 8 8 8 8 9 5 3 6 9 12 14 14 15 15 15 13 14 15
5 6 6 5 5 6 5 4 4 4 4 4 5 6 8 10 10 10 9 9 8 7 7 6 6 5 4 2 1 4 5 6 5 6 7 7 9 9 10 11 11 11 12 12 12 12 13 13 13 13 13 13 14 14 14 11 9 9 9 10 11 12 8 6 8 8 7 8 8 8 9 10 6 7 9 12 14 14 15 15 16 17 16 15 15
5 7 7 7 6 7 7 5 5 5 5 5 5 5 4 7 8 8 8 7 6 6 4 3 1 4 3 2 4 5 4 5 6 6 5 6 6 9 10 11 11 11 12 13 11 11 12 13 13 13 13 14 13 15 13 9 9 10 10 9 11 7 6 5 6 7 7 8 9 9 12 8 7 9 10 12 15 16 16 17 17 18 18 17 16
8 8 8 8 8 7 7 7 5 6 5 4 3 4 4 3 4 4 4 3 4 2 3 4 4 4 2 2 4 4 4 5 6 7 5 6 6 7 9 11 11 12 13 14 12 11 12 12 11 12 13 13 15 8 6 5 8 7 8 12 7 4 5 6 6 7 7 8 9 10 12 9 11 12 13 14 16 17 17 17 18 19 19 19 18
10 9 8 10 8 7 8 8 7 7 6 5 4 4 4 4 4 4 4 3 3 2 2 3 4 4 3 3 4 4 4 4 4 3 4 6 2 3 6 9 9 10 12 14 11 11 13 12 11 11 13 12 7 5 5 5 6 9 8 6 4 5 6 6 6 6 6 6 7 10 13 12 14 15 16 17 17 17 17 18 19 19 19 19 19
11 10 9 8 9 7 8 7 8 8 7 5 5 5 4 4 4 4 3 3 2 2 2 2 3 3 3 4 4 4 3 4 2 2 4 4 5 6 5 6 9 8 11 8 9 9 12 10 10 11 8 5 6 6 6 6 6 6 6 6 5 6 6 6 5 6 6 6 6 11 12 13 17 18 19 17 18 20 20 20 20 21 20 20 19
9 9 8 9 10 9 8 7 7 7 6 5 5 5 4 4 3 3 3 2 2 2 2 2 2 2 3 3 3 3 3 4 5 5 5 5 6 6 6 6 7 7 9 7 6 7 7 6 6 7 6 6 6 6 6 6 6 6 7 6 7 7 6 6 6 6 6 7 7 10 10 11 13 15 17 18 18 19 20 22 22 23 21 21 21
9 10 10 10 11 9 9 8 8 7 7 6 5 5 5 4 4 3 4 3 2 2 1 2 2 2 2 2 2 3 3 3 5 5 5 5 5 6 6 6 6 6 7 6 7 7 7 6 6 6 6 6 6 6 6 6 7 6 7 7 7 7 7 6 7 6 7 7 7 11 10 10 14 17 18 20 21 21 21 21 22 23 24 24 22
10 11 10 10 11 10 10 9 8 7 7 5 5 5 5 4 4 4 4 3 3 2 2 2 2 2 1 2 2 3 3 4 4 4 5 5 5 5 5 5 6 6 7 6 7 7 7 7 7 7 7 7 7 7 7 7 7 7 7 7 7 7 7 7 7 7 7 7 8 12 12 12 14 17 19 20 21 22 22 22 22 22 23 24 26
10 11 10 10 10 12 10 10 8 8 7 6 6 6 5 4 4 4 2 3 2 3 3 2 2 2 3 3 3 3 3 3 4 4 4 4 4 5 5 5 6 5 6 6 6 6 7 6 7 7 8 7 8 8 7 7 7 7 7 7 8 8 8 8 8 8 8 8 8 11 12 12 11 15 18 20 21 22 22 22 23 23 24 24 25
12 13 11 11 12 11 11 11 9 9 7 7 6 5 5 5 5 4 3 4 2 3 3 3 2 3 3 3 3 2 3 3 3 3 3 4 4 5 5 5 5 5 6 6 6 7 7 6 6 7 7 7 7 7 7 8 7 7 8 8 8 8 9 9 9 9 9 9 9 10 12 12 12 16 19 21 21 22 22 22 22 23 24 24 24
14 13 12 11 11 12 12 12 10 9 8 7 6 5 5 5 5 4 4 4 3 3 4 2 2 2 3 3 3 3 3 3 3 3 4 4 4 4 4 5 5 5 5 6 6 6 6 6 6 6 7 7 7 7 7 7 7 8 8 8 8 8 8 8 9 9 9 9 9 10 14 14 13 16 19 20 21 22 23 23 23 22 23 24 25
14 15 13 11 11 13 12 12 11 9 8 8 6 6 6 5 5 4 4 4 4 4 3 3 2 2 3 2 3 3 3 3 3 3 3 4 4 4 4 4 5 5 5 6 6 6 6 6 6 6 6 6 7 7 7 7 7 7 8 8 8 8 9 9 9 9 10 10 10 10 11 15 16 16 17 21 22 22 22 23 23 23 22 23 24
15 15 12 11 12 14 13 12 11 10 9 8 7 6 6 5 6 4 4 4 4 4 3 3 3 3 3 2 2 3 3 2 3 2 3 3 3 4 4 4 4 4 5 6 7 7 7 7 7 7 7 7 7 7 7 7 7 7 8 9 8 8 9 9 9 10 10 10 10 11 10 10 14 15 15 18 21 22 22 23 23 23 23 22 23
12 14 13 13 14 14 12 12 11 11 10 9 8 7 6 6 6 5 5 4 4 4 4 3 3 3 3 2 3 2 2 2 2 3 3 3 3 4 3 4 4 4 5 7 8 7 7 7 7 7 6 6 7 7 6 7 7 8 8 8 8 9 9 9 10 10 10 10 10 11 11 11 11 14 16 16 18 21 22 22 22 22 23 23 23
12 12 14 14 12 9 9 9 10 11 11 9 9 7 8 7 6 5 6 6 5 4 4 4 3 4 3 3 2 2 2 2 3 3 3 3 3 3 3 4 3 4 5 6 6 6 7 7 7 7 7 7 7 7 7 7 7 7 8 8 8 9 9 10 10 10 10 11 11 11 11 11 10 10 10 13 14 15 18 21 21 22 22 22 23
12 13 16 15 14 11 9 9 10 11 11 10 10 8 8 7 7 6 6 6 5 5 4 4 4 3 3 4 2 2 2 3 3 2 2 2 3 3 3 3 3 5 5 5 6 6 7 7 7 7 7 7 7 7 8 8 8 8 8 8 9 9 9 10 10 11 11 11 11 11 11 11 11 10 9 9 10 13 14 17 20 20 21 21 21
16 15 14 15 15 13 12 10 12 12 11 10 9 8 8 7 7 7 6 6 5 5 5 4 4 3 3 3 3 2 2 2 1 1 2 2 3 3 4 3 4 5 5 5 6 6 6 7 7 7 7 8 8 8 8 8 8 9 9 9 9 9 10 10 10 11 11 11 11 11 11 11 10 10 10 10 10 11 15 16 16 20 21 21 22
16 16 16 16 15 14 13 13 14 13 12 11 10 9 8 8 7 7 7 6 5 5 5 4 4 3 3 2 3 2 2 2 0 1 2 2 3 3 4 4 4 5 5 6 6 6 6 6 7 7 7 7 8 10 9 9 9 9 9 10 10 10 10 10 11 11 10 12 12 12 11 11 10 11 11 10 10 10 12 14 15 17 18 20 22
15 16 17 17 16 14 13 12 12 12 11 11 10 9 8 8 7 6 7 6 5 5 5 4 4 3 3 2 3 1 2 2 1 1 2 3 3 4 4 4 4 5 5 6 6 6 7 7 8 7 7 7 8 9 10 9 9 9 10 10 11 10 10 11 11 11 11 12 12 11 11 10 10 10 11 11 11 11 10 12 15 16 18 18 21
13 16 16 15 14 13 12 13 12 13 11 11 10 9 9 7 6 6 6 6 5 4 4 4 3 4 3 4 2 2 2 1 1 1 2 3 3 4 4 4 4 5 6 6 6 7 7 7 7 8 7 7 8 9 10 9 9 10 10 12 12 13 11 11 11 11 12 12 11 10 10 11 11 11 11 11 11 11 11 10 9 9 10 13 15
14 15 17 16 14 14 12 12 12 12 11 10 9 8 8 8 7 7 6 5 5 5 4 4 4 3 4 3 3 2 1 1 1 2 3 3 4 4 5 5 5 5 6 7 6 6 7 8 9 9 9 8 8 8 9 9 10 12 13 12 11 12 13 12 13 14 12 10 10 10 10 10 10 10 10 10 10 10 11 10 10 10 10 11 14
14 17 16 16 16 15 14 14 12 13 11 11 10 9 9 8 8 8 7 7 6 6 5 5 4 4 5 3 3 2 2 1 1 2 3 3 4 4 5 5 6 6 6 7 7 8 8 8 8 8 9 9 8 7 8 8 10 11 8 10 11 12 14 13 14 14 12 10 8 9 9 9 10 10 10 9 10 10 10 11 11 10 10 9 10
14 16 16 17 15 15 15 13 12 12 12 11 10 9 9 8 8 8 7 7 7 6 6 6 5 4 4 4 4 3 3 2 2 2 3 3 4 5 5 6 5 6 6 7 8 9 10 9 8 8 7 8 8 7 7 7 7 8 13 13 9 8 7 10 13 12 9 6 6 7 9 10 10 10 10 10 10 10 10 11 11 10 10 10 9
15 17 16 16 15 14 13 13 12 12 11 11 10 9 8 8 8 8 7 6 4 4 4 5 5 4 5 4 4 3 3 3 3 2 3 3 4 6 6 6 6 5 6 7 8 9 8 9 9 8 8 7 8 7 8 5 7 9 10 12 11 13 5 6 5 3 7 10 11 14 14 12 13 11 10 10 10 11 10 9 10 10 10 10 10
13 14 15 16 13 13 14 13 12 12 11 11 9 9 8 7 6 7 5 5 5 5 4 4 4 5 5 4 4 4 4 3 2 3 3 4 5 6 6 6 6 5 6 7 8 8 8 8 8 8 8 9 7 7 5 6 6 7 8 6 12 9 14 4 8 10 8 13 14 11 7 7 11 12 11 12 11 11 10 10 12 12 13 13 12
13 14 15 15 11 15 14 14 12 12 10 11 11 10 10 9 7 7 5 4 3 4 5 5 5 5 4 5 5 5 4 3 2 3 4 5 5 6 6 6 6 6 6 7 7 8 9 8 8 8 8 8 9 7 7 6 7 6 6 8 8 6 7 12 13 15 6 5 5 9 12 13 12 11 10 11 10 10 11 13 13 12 12 12 12
14 13 13 14 12 13 14 14 11 11 11 12 12 10 9 9 9 8 7 7 7 7 7 7 7 6 6 4 4 4 3 3 3 3 5 5 6 6 6 6 6 6 6 6 7 8 9 9 9 8 9 9 9 8 8 6 6 7 9 9 8 9 13 13 9 13 8 9 13 8 9 9 10 11 11 12 13 12 12 13 13 14 13 12 12
14 12 12 14 14 14 15 14 12 11 11 12 13 10 10 9 10 9 8 8 7 6 6 5 5 5 4 4 3 3 3 3 4 4 5 6 6 6 6 6 6 6 6 7 8 8 8 8 7 7 8 7 7 8 8 7 6 7 8 9 11 11 11 10 11 11 17 9 6 9 10 9 11 12 12 12 11 11 11 12 13 13 14 13 13
14 13 13 14 16 17 16 15 12 12 11 12 13 11 10 10 10 9 7 7 7 7 7 5 4 3 3 3 2 3 3 4 4 5 5 5 5 5 5 5 6 6 6 7 7 8 8 7 7 8 8 8 8 8 8 7 7 7 6 8 9 10 11 13 13 11 13 17 19 6 9 10 10 10 11 12 13 13 12 12 12 13 12 13 12
15 15 15 14 14 16 15 15 13 12 12 14 13 12 10 10 10 9 8 6 6 5 5 5 4 4 4 3 3 3 3 4 5 5 5 5 5 5 5 5 6 6 6 7 8 8 9 9 9 8 8 8 7 8 8 7 7 8 7 8 9 10 10 10 11 11 11 13 20 17 12 8 11 13 10 12 11 11 12 13 13 14 14 14 14
13 12 13 12 14 14 15 16 14 11 12 14 13 13 12 10 10 10 10 8 7 6 5 6 5 5 4 5 4 4 4 5 5 6 6 6 5 5 5 6 6 6 6 8 9 9 9 9 9 9 9 10 8 8 9 8 8 8 8 9 9 9 10 9 9 9 11 12 15 20 18 15 14 11 9 11 13 14 13 13 14 14 14 14 14
10 13 13 13 14 13 14 15 14 11 12 14 14 14 12 11 10 11 11 10 10 8 7 6 6 5 5 5 5 5 5 4 4 4 5 5 5 5 5 6 6 6 7 8 9 8 8 8 8 9 10 10 9 9 10 10 9 9 10 9 10 10 10 10 10 9 11 11 12 17 19 18 17 18 10 10 12 14 13 12 13 13 13 14 15
Wind_Direction
74 68 52 56 357 35 35 33 40 45 45 46 48 47 51 56 59 62 61 68 69 65 72 65 69 66 63 56 49 44 41 39 40 43 44 47 41 37 41 39 25 17 16 4 356 355 1 355 355 352 356 13 13 352 337 343 339 344 340 336 336 336 337 336 338 339 338 340 336 332 331 324 315 302 292 283 277 278 229 229 267 272 267 241 246
92 78 68 52 21 43 39 42 44 45 46 48 49 49 49 52 58 60 61 65 66 70 70 71 70 72 69 65 60 56 52 50 52 55 55 55 53 50 46 46 42 34 23 13 12 1 359 355 349 346 339 9 356 345 329 315 329 323 328 330 330 331 333 333 334 332 331 330 330 327 323 308 297 289 281 278 274 271 260 209 221 247 271 288 282
77 85 87 71 52 40 49 52 52 52 50 50 48 49 49 48 56 54 56 60 62 63 62 63 64 63 63 59 56 54 52 51 53 54 56 59 56 50 45 44 40 34 20 11 8 1 359 351 347 344 346 4 348 333 341 334 307 314 314 321 328 328 326 327 327 326 324 325 324 323 309 284 263 264 263 266 268 260 253 235 209 236 261 284 308
86 77 73 113 72 43 54 57 54 54 55 52 54 53 53 52 52 54 52 52 57 55 56 54 52 57 55 55 53 52 47 47 50 49 53 53 53 50 46 42 39 37 23 17 10 2 355 345 343 343 347 351 330 332 344 350 319 302 303 314 324 330 323 318 321 318 319 319 317 316 301 292 265 228 252 261 252 252 260 255 221 220 254 270 275
101 78 75 63 69 55 51 56 55 55 54 55 53 53 53 53 52 53 54 52 53 55 52 50 48 47 49 47 46 47 46 46 46 47 45 46 48 46 42 40 37 34 26 26 19 7 2 353 349 348 349 345 339 340 332 311 325 314 315 320 329 330 331 325 318 317 313 312 308 302 289 281 284 292 224 277 281 260 287 278 239 236 251 264 273
82 84 72 82 70 59 51 59 59 59 56 56 55 54 53 53 54 52 54 56 55 54 56 54 54 53 50 49 51 49 49 46 45 45 44 44 44 43 39 37 34 28 26 24 20 18 15 6 359 353 351 352 350 7 6 355 344 340 327 320 316 319 318 317 317 309 307 308 291 274 267 263 275 359 116 275 292 283 243 264 253 231 235 252 266
83 56 68 75 78 54 54 59 64 63 64 61 59 59 58 58 58 57 60 61 60 60 58 56 57 56 57 57 54 53 50 47 45 44 43 42 42 43 40 35 32 30 24 20 16 15 14 9 7 1 358 2 13 11 5 2 1 356 342 325 309 306 307 311 309 306 303 301 300 297 305 310 319 325 145 170 230 296 325 319 314 297 280 279 270
83 97 93 79 61 62 60 67 66 69 68 66 65 64 64 64 64 66 65 63 62 61 60 61 60 58 59 57 57 55 51 49 46 44 42 42 41 42 43 39 35 32 27 22 21 20 19 17 13 11 12 22 21 13 6 3 1 359 353 338 325 311 305 305 313 309 303 295 285 296 291 289 306 294 299 294 292 328 312 308 307 301 293 284 265
125 118 98 88 83 58 63 69 73 73 72 69 68 66 66 67 66 69 68 66 65 63 63 62 60 59 59 58 56 54 52 49 47 44 42 42 41 39 40 39 37 33 29 26 24 22 21 22 22 22 22 23 19 10 8 1 359 355 349 343 329 319 313 315 312 314 291 293 302 299 314 308 298 302 287 283 278 285 296 306 299 296 309 318 291
128 99 69 81 81 72 76 71 71 71 71 71 69 68 67 65 67 68 69 69 67 66 66 65 63 62 59 57 55 52 50 48 46 44 43 42 41 40 37 36 34 32 30 27 26 23 23 24 23 21 20 22 19 12 12 9 3 359 351 343 335 326 322 316 311 289 288 285 297 302 296 317 304 299 288 276 278 273 282 283 284 291 283 287 270
123 111 105 88 71 70 73 75 74 70 68 68 67 67 65 63 64 65 66 68 68 68 66 65 66 64 63 61 58 56 53 49 46 44 43 41 39 38 36 34 34 31 28 25 22 21 21 21 20 19 19 18 16 13 11 9 4 4 1 353 341 332 329 317 300 288 291 299 297 300 300 309 281 262 354 347 300 268 274 272 278 279 274 276 272
125 117 102 97 76 64 71 69 71 73 74 71 68 65 62 63 62 62 63 64 65 66 65 65 65 63 64 62 60 59 56 53 49 46 43 41 39 37 34 32 29 28 27 25 21 18 18 17 17 18 16 14 12 9 8 5 4 4 3 359 357 350 345 332 300 290 290 288 290 292 293 293 296 304 329 294 268 285 277 272 272 278 283 276 272
125 126 118 112 90 57 67 71 70 74 74 72 71 69 68 65 62 62 61 60 61 60 61 62 61 61 60 59 59 58 57 56 54 50 45 43 40 37 34 29 27 26 23 22 19 16 14 14 14 14 14 11 8 6 5 2 2 2 0 358 358 355 354 331 300 289 282 281 286 288 288 287 285 277 275 283 285 286 288 286 286 288 290 285 274
144 129 118 102 91 70 63 71 73 73 72 73 73 72 70 67 66 65 63 62 61 60 60 61 60 60 59 58 56 55 54 53 53 50 46 43 41 38 34 30 27 24 21 19 16 11 8 7 6 6 5 2 1 357 358 358 357 358 356 358 355 352 352 325 298 282 276 273 273 276 280 284 279 297 2 310 293 294 294 290 288 289 290 289 283
131 123 119 122 122 100 73 63 72 72 71 71 69 70 70 69 68 65 64 63 61 60 61 60 60 60 59 58 56 55 53 52 50 48 45 42 38 35 33 30 26 23 20 17 13 9 4 360 358 358 357 352 350 348 346 348 348 349 351 351 351 346 347 333 320 296 286 280 273 268 262 264 272 298 317 303 294 288 290 293 294 292 289 287 281
127 124 121 118 124 131 118 84 70 71 72 72 73 76 76 75 72 69 67 65 63 64 61 62 62 61 60 58 55 53 50 48 45 44 41 37 33 30 27 24 22 19 17 14 11 8 3 1 356 352 350 346 342 340 338 336 337 339 340 342 341 337 333 327 306 295 289 282 277 273 268 266 267 267 271 279 285 288 286 288 293 294 293 291 289
123 122 121 119 127 120 116 107 94 88 74 70 73 74 74 74 72 70 66 64 64 63 62 64 63 64 62 60 57 54 51 46 43 40 37 31 27 24 20 18 16 12 11 9 6 4 2 0 355 348 346 342 337 334 332 329 326 329 332 330 330 325 314 312 293 285 279 282 285 283 284 279 278 255 260 277 281 287 287 287 290 295 295 292 291
128 137 136 140 141 134 121 130 147 140 123 102 75 67 76 76 73 70 67 65 64 64 62 63 65 67 67 69 69 67 59 53 49 43 39 33 24 22 16 14 11 8 5 1 358 357 356 354 351 347 343 338 331 327 324 321 319 323 325 325 322 316 305 299 279 273 269 262 268 268 268 268 263 259 262 274 283 286 287 288 288 289 291 291 289
155 165 149 157 148 148 145 147 157 149 152 125 111 79 72 75 74 71 68 67 67 65 64 61 61 62 67 74 91 92 84 67 61 54 46 44 31 20 13 11 8 5 1 355 353 351 350 347 344 343 340 334 329 324 319 315 312 315 318 317 316 308 303 288 272 271 274 272 275 273 269 269 286 246 260 270 278 288 292 292 291 290 288 287 286
171 174 166 167 165 161 163 158 162 161 142 119 113 104 83 78 74 70 68 64 57 58 59 60 61 45 65 80 45 137 111 96 68 52 46 41 42 20 7 6 5 2 357 350 345 345 344 342 340 337 337 332 327 322 314 306 304 307 304 306 302 298 284 273 280 292 297 289 288 284 284 301 306 290 280 276 277 284 289 291 289 289 288 286 284
178 185 183 176 172 175 174 164 160 150 136 127 114 108 114 132 104 93 83 62 48 47 33 48 95 66 9 27 211 43 55 42 43 20 15 22 48 16 1 360 360 358 352 349 344 341 339 338 335 333 331 328 321 311 293 285 309 304 293 282 283 286 273 294 300 295 293 293 290 285 298 331 331 307 287 280 279 279 283 287 287 287 287 286 285
183 185 189 180 180 179 175 168 155 154 145 134 134 139 134 137 104 107 79 85 60 33 51 20 24 19 324 22 41 39 28 44 33 17 3 7 23 11 354 354 356 356 352 347 343 340 340 336 331 330 325 321 307 300 318 329 304 288 285 283 275 282 325 325 318 301 295 287 285 282 292 315 310 301 290 284 281 282 281 282 285 284 283 285 285
187 188 187 184 185 177 181 170 166 156 151 146 153 149 162 136 130 119 128 117 91 46 38 34 23 13 10 24 44 38 16 52 35 355 326 286 19 355 354 346 353 355 352 341 343 345 342 333 332 329 317 298 297 327 328 324 320 319 302 296 323 325 322 311 295 288 287 289 289 300 311 314 308 298 291 285 283 282 280 278 278 279 280 279 281
191 189 181 184 183 178 182 167 163 163 163 160 167 166 165 162 158 160 151 150 141 124 91 34 33 17 10 29 38 32 9 36 96 189 296 4 15 5 359 343 5 357 356 336 342 351 336 337 337 332 320 345 335 328 331 325 325 325 324 321 321 325 314 306 302 295 290 290 287 290 298 300 295 291 286 285 284 282 283 281 279 277 278 279 277
192 183 180 183 182 179 170 168 169 170 178 162 176 168 166 165 156 161 150 142 146 138 112 88 53 19 14 43 44 33 26 35 25 14 10 10 10 6 1 2 1 353 354 347 349 344 340 338 338 339 339 336 338 329 328 325 324 324 322 323 321 318 313 305 300 299 296 292 287 290 299 302 300 295 290 287 288 289 290 288 283 278 275 276 276
185 189 185 178 181 178 174 169 173 175 178 174 182 144 170 169 164 159 154 146 138 122 115 99 88 38 37 14 60 52 32 42 26 21 11 12 11 6 358 0 354 352 355 348 351 345 340 342 340 340 336 331 325 324 320 317 314 317 314 316 312 309 311 309 302 298 294 291 290 294 296 296 293 288 283 282 282 283 283 284 286 286 281 275 274
189 192 181 181 179 179 175 169 175 173 180 181 164 165 185 165 163 156 165 151 148 145 114 117 78 54 29 51 43 45 47 37 27 23 17 13 9 2 357 353 355 352 353 345 349 343 340 339 343 338 335 328 326 324 316 315 312 313 309 306 307 306 304 304 302 300 299 294 288 286 280 279 281 281 281 279 278 278 278 278 279 280 282 281 275
190 187 183 177 177 178 173 172 175 174 174 181 180 176 173 164 145 129 188 106 143 130 121 94 130 106 54 44 36 62 47 48 28 23 17 15 4 360 352 354 356 351 349 343 345 342 336 337 336 335 333 331 327 322 320 320 319 310 308 310 309 305 300 301 300 296 293 292 288 284 281 274 271 276 279 277 276 275 275 276 275 275 274 276 279
189 187 180 178 176 174 174 180 175 178 176 179 191 174 164 163 156 165 147 148 160 136 120 151 148 110 85 64 46 61 57 53 39 21 9 14 359 2 350 1 349 352 347 343 345 339 333 333 330 332 329 325 323 320 321 315 312 312 309 306 304 303 302 298 298 297 292 290 289 285 282 280 272 274 275 275 274 274 273 273 273 274 273 273 274
194 185 177 180 173 172 178 182 178 180 175 177 187 172 166 164 162 164 138 170 144 126 154 153 134 127 99 75 62 59 58 42 41 10 8 6 355 359 353 354 346 348 347 340 341 333 327 321 321 321 322 321 319 316 314 309 308 306 303 300 299 298 298 298 296 296 294 290 287 287 282 273 267 267 272 273 274 274 274 272 271 269 270 272 272
190 189 181 177 172 172 178 181 177 177 170 179 179 176 166 164 164 156 158 166 145 153 160 143 128 105 91 80 82 58 61 64 31 23 360 360 355 355 349 346 340 346 345 333 333 326 316 308 311 310 310 311 305 309 309 308 307 304 302 300 298 297 295 294 292 291 291 289 287 287 286 281 274 265 263 268 271 272 272 273 272 270 267 267 268
191 189 181 174 170 176 175 178 177 172 171 181 172 173 169 163 160 164 163 153 162 161 148 143 131 106 94 88 70 65 62 74 65 34 5 349 352 351 337 342 333 338 337 333 324 315 302 297 296 301 297 292 299 300 302 301 301 301 304 300 299 296 295 296 293 290 288 288 287 285 284 281 276 269 262 259 267 271 273 275 276 275 273 268 267
193 186 179 173 174 174 174 176 174 167 180 177 169 170 166 158 166 169 155 159 170 161 152 141 130 114 113 99 76 74 74 53 46 37 360 343 347 335 330 326 324 338 330 321 313 305 302 303 306 303 297 305 299 300 303 301 302 303 301 301 301 299 297 295 293 292 289 289 288 286 284 284 282 280 271 262 260 265 270 274 276 276 275 274 271
186 182 176 175 170 169 167 168 174 171 181 176 173 170 167 167 168 166 158 176 166 156 146 145 134 135 135 127 116 86 53 62 38 24 360 340 326 314 316 313 320 336 323 313 312 312 305 304 309 309 310 305 308 310 309 304 301 303 303 304 300 297 298 294 293 291 288 286 286 284 283 284 285 284 284 278 271 263 262 267 270 272 273 273 273
179 180 180 172 167 165 164 165 172 171 179 175 172 170 166 168 169 166 167 182 159 156 155 144 149 152 158 139 118 94 82 65 43 10 340 316 302 299 305 305 335 329 314 312 309 303 299 306 314 314 308 308 310 311 308 305 305 302 300 303 301 300 297 292 290 289 287 285 284 282 282 282 282 282 283 285 275 268 261 259 264 269 272 275 274
184 177 171 168 168 163 162 159 168 170 174 170 169 163 165 166 171 167 161 170 162 156 151 149 150 156 155 134 127 116 81 69 60 11 287 297 297 293 299 323 330 321 315 307 301 297 304 308 305 306 310 310 313 309 307 302 300 301 300 297 295 295 292 290 287 284 283 284 282 281 280 280 282 284 290 288 286 280 270 266 263 266 268 269 272
181 172 168 170 166 161 163 162 171 168 172 167 165 164 167 168 163 167 155 167 159 157 147 149 153 163 150 141 125 115 117 109 117 238 270 272 284 297 301 317 330 319 307 300 295 296 304 305 301 301 303 306 308 303 302 302 301 298 297 292 290 288 284 282 280 281 283 277 277 278 280 279 280 278 276 275 276 279 276 265 256 258 257 258 261
181 174 169 169 168 162 165 167 168 169 168 167 168 167 166 164 162 161 163 162 155 148 147 151 165 156 147 147 121 152 139 141 211 275 287 297 292 294 300 310 311 305 297 294 293 296 290 289 294 301 307 306 300 301 301 299 296 296 291 289 285 281 279 277 274 273 274 272 269 272 277 282 280 279 277 274 278 282 284 282 276 264 254 251 253
179 173 168 167 163 161 165 166 168 170 167 166 165 164 163 165 159 155 157 152 157 150 144 165 162 156 160 123 147 181 154 177 231 270 288 298 300 302 300 296 292 288 288 289 292 290 284 280 286 295 293 287 289 289 287 290 291 289 288 285 283 276 272 269 271 271 265 265 273 272 272 275 275 274 276 278 279 282 281 282 283 285 278 262 248
177 174 169 166 164 161 163 166 172 170 165 164 164 166 166 168 162 161 161 167 160 153 168 171 162 165 140 158 153 182 167 193 250 299 292 293 300 298 298 291 278 274 278 283 287 287 294 301 295 293 292 286 278 278 285 293 293 290 285 277 272 276 273 273 272 266 265 268 269 272 273 273 273 273 273 275 277 278 279 280 280 280 280 277 271
176 174 171 171 169 166 165 169 172 170 168 167 172 171 175 172 171 175 171 167 169 160 167 173 169 162 144 166 164 186 170 197 251 267 274 284 281 282 278 272 261 264 269 274 276 283 286 285 287 285 283 284 281 281 288 300 301 293 284 288 288 275 266 264 265 260 257 265 270 276 277 277 276 276 275 276 278 279 281 282 280 279 279 280 279
178 177 175 175 171 169 170 168 173 174 177 174 172 179 179 180 172 176 170 163 160 168 171 170 170 145 156 175 179 173 182 201 235 251 272 268 274 275 271 265 265 266 270 276 279 280 281 277 278 281 271 275 282 288 291 301 295 310 320 313 289 272 271 272 263 273 273 258 266 280 283 277 278 277 277 279 281 280 281 281 280 279 279 280 281
176 180 175 173 173 172 174 173 175 176 178 175 173 179 175 173 178 168 163 149 147 152 145 138 147 160 170 176 181 178 186 199 214 232 250 258 262 266 263 265 265 267 270 272 274 276 273 271 268 272 287 280 280 279 274 262 291 310 300 292 311 326 306 269 251 280 347 329 306 289 284 285 284 285 287 287 287 285 281 281 281 280 284 288 291
176 179 178 178 175 179 176 174 174 174 176 177 174 170 153 129 111 124 119 135 153 140 141 154 167 175 187 184 189 186 187 197 203 233 238 240 245 255 265 268 267 264 265 272 275 275 274 272 269 266 273 285 280 285 284 288 286 313 317 323 307 303 308 311 337 295 290 279 269 268 275 297 307 304 297 288 286 285 288 293 291 290 286 285 281
179 181 181 179 178 180 177 176 173 176 175 169 167 151 133 127 118 112 116 105 109 159 176 187 185 184 189 185 190 182 185 191 207 228 242 250 254 254 260 267 270 272 272 271 271 271 272 269 271 272 269 274 287 287 288 278 272 255 270 307 314 295 284 309 332 297 252 272 289 303 288 279 276 278 279 276 280 285 292 291 288 283 281 281 281
184 183 178 178 173 176 177 176 173 175 173 166 161 149 153 156 157 160 169 180 180 183 191 187 179 183 192 182 170 168 185 199 213 228 237 250 250 249 253 261 265 267 265 268 270 273 271 269 265 265 269 268 276 287 284 278 266 260 251 244 248 275 306 311 321 304 308 273 273 263 280 281 278 278 277 280 283 285 282 280 282 285 285 283 283
185 173 171 176 174 174 177 176 174 174 170 167 164 159 163 172 176 179 181 181 184 184 182 172 165 164 165 167 175 180 192 205 218 225 236 241 248 254 257 259 265 267 271 273 272 272 272 271 271 263 267 278 278 279 284 294 292 268 254 248 253 263 270 288 294 309 305 299 226 278 277 271 275 273 273 277 282 284 282 283 284 283 282 283 282
178 170 172 178 177 178 176 175 174 173 164 165 167 169 170 174 175 179 181 181 184 167 158 156 165 163 163 171 193 206 199 207 220 226 231 236 247 255 257 259 264 267 269 270 271 273 276 275 269 266 269 266 268 271 284 286 284 288 286 278 273 268 263 264 266 274 288 301 301 263 259 276 277 272 280 282 281 277 281 283 284 285 287 286 284
180 174 177 178 175 178 176 174 173 168 163 166 167 172 173 173 172 170 171 175 169 163 154 160 165 171 179 184 201 216 221 224 225 233 231 238 247 255 260 263 267 271 269 271 270 271 272 275 274 271 268 268 267 274 278 279 280 282 293 283 281 275 273 267 268 268 271 292 291 293 287 283 281 280 277 279 279 281 285 286 288 288 285 283 282
180 171 168 167 173 173 174 175 171 167 165 167 168 172 172 169 172 173 172 170 167 171 175 173 179 179 184 193 198 208 215 215 215 217 225 231 240 250 256 263 268 269 270 268 269 272 272 269 268 267 268 270 270 270 270 275 276 278 277 283 280 280 277 273 265 266 268 258 274 296 299 299 293 283 288 286 284 281 279 276 277 279 281 283 284
164 165 169 170 173 172 170 172 171 165 165 169 170 172 171 174 174 174 173 171 170 171 173 182 180 176 192 193 201 210 210 213 214 219 219 228 238 245 257 267 273 275 272 271 268 269 272 273 272 270 267 264 268 269 273 272 271 271 271 269 269 271 273 275 276 276 277 280 285 282 291 296 294 292 277 274 278 277 276 278 279 278 282 281 279